Victoria, British Columbia

10:36 PM PST on February 10, 2016 (GMT -0800)
Victoria

Weather History for 71799 - October, 2012

Change the Weather History Date:

Tuesday, October 30, 2012

  Actual Average Record
Temperature  
Mean Temperature 52 °F -  
Max Temperature 54 °F 49 °F - ()
Min Temperature 50 °F 36 °F - ()
Degree Days  
Heating Degree Days 13    
Growing Degree Days 2 (Base 50)    
Moisture  
Dew Point 50 °F    
Average Humidity 93    
Maximum Humidity 100    
Minimum Humidity 88    
Precipitation  
Precipitation 0.79 in 0.18 in - ()
Sea Level Pressure  
Sea Level Pressure 29.83 in    
Wind  
Wind Speed 5 mph ()    
Max Wind Speed 14 mph    
Max Gust Speed 17 mph    
Visibility 5.5 miles    
Events Rain    
T = Trace of Precipitation, MM = Missing Value Source: Averaged Metar Reports

Daily Weather History Graph

Daily Weather History Graph

Search for Another Location

Airport or City:

Trip Planner

Search our weather history database for the weather conditions in past years. The results will help you decide how hot, cold, wet, or windy it might be!

Date:

Astronomy

Oct. 30, 2012 Rise Set
Actual Time 7:57 AM PDT 5:55 PM PDT
Civil Twilight 7:25 AM PDT 6:28 PM PDT
Nautical Twilight 6:48 AM PDT 7:05 PM PDT
Astronomical Twilight 6:11 AM PDT 7:42 PM PDT
Moon 6:21 PM PDT (10/30) 8:56 AM PDT (10/30)
Length of Visible Light 11h 03m
Length of Day
9h 58m
Full, 99% of the Moon is Illuminated
Oct 30
Full
Nov 6
Last Quarter
Nov 13
New
Nov 20
First Quarter
Nov 28
Full

Hourly Weather History & Observations

Time (PDT) Temp. Dew Point Humidity Pressure Visibility Wind Dir Wind Speed Gust Speed Precip Events Conditions
12:00 AM 53.6 °F 50.0 °F 88% 29.92 in 15.0 mi South 6.9 mph - N/A   Overcast
1:00 AM 51.8 °F 50.0 °F 94% 29.92 in 20.0 mi SE 6.9 mph - N/A   Overcast
2:00 AM 53.6 °F 50.0 °F 88% 29.91 in 15.0 mi SE 9.2 mph - N/A Rain Light Rain
3:00 AM 51.8 °F 50.0 °F 94% 29.89 in 12.0 mi SE 8.1 mph - N/A Rain Light Rain
4:00 AM 51.8 °F 50.0 °F 94% 29.88 in 12.0 mi East 9.2 mph - N/A Rain Light Rain
4:31 AM 51.8 °F - N/A% - 8.0 mi ESE 8.1 mph - N/A   Overcast
5:00 AM 52 °F 50 °F 92% 29.87 in 12 mi South 5.8 mph - - Rain Light Rain
5:00 AM 51.8 °F 50.0 °F 94% 29.87 in 12.0 mi SSE 4.6 mph - N/A   Overcast
6:00 AM 53.6 °F 50.0 °F 88% 29.86 in 20.0 mi South 8.1 mph - N/A   Overcast
7:00 AM 53.6 °F 50.0 °F 88% 29.85 in 8.0 mi SSE 8.1 mph - N/A   Overcast
8:00 AM 51.8 °F 50.0 °F 94% 29.86 in 1.2 mi South 2.3 mph - N/A   Overcast
8:17 AM 51.8 °F - N/A% - 3.0 mi South 4.6 mph - N/A   Mostly Cloudy
9:00 AM 51.8 °F 50.0 °F 94% 29.87 in 3.0 mi SE 3.5 mph - N/A Rain Light Rain Showers
9:37 AM 51.8 °F - N/A% - 3.0 mi East 2.3 mph - N/A Rain Light Rain Showers
10:00 AM 51.8 °F 50.0 °F 94% 29.87 in 1.0 mi ESE 5.8 mph - N/A   Overcast
10:17 AM 51.8 °F - N/A% - 1.0 mi ENE 3.5 mph - N/A   Overcast
10:51 AM 51.8 °F - N/A% - 2.0 mi Calm Calm - N/A   Mostly Cloudy
11:00 AM 53 °F 51 °F 90% 29.86 in 3 mi Calm Calm - - Rain Light Rain
11:00 AM 51.8 °F 51.8 °F 100% 29.86 in 3.0 mi Calm Calm - N/A Rain Light Rain
11:29 AM 51.8 °F - N/A% - 2.0 mi NNE 5.8 mph - N/A Rain Light Rain
11:36 AM 51.8 °F - N/A% - 1.0 mi NNE 4.6 mph - N/A Rain Light Rain
12:00 PM 51.8 °F 50.0 °F 94% 29.86 in 2.0 mi North 4.6 mph - N/A Rain Light Rain
1:00 PM 51.8 °F 50.0 °F 94% 29.86 in 2.0 mi NNW 2.3 mph - N/A Rain Light Rain
2:00 PM 51.8 °F 50.0 °F 94% 29.85 in 1.5 mi NNE 3.5 mph - N/A Rain Light Rain
3:00 PM 51.8 °F 50.0 °F 94% 29.83 in 2.0 mi North 8.1 mph - N/A Rain Light Rain
4:00 PM 51.8 °F 50.0 °F 94% 29.82 in 5.0 mi North 9.2 mph - N/A Rain Light Rain
4:33 PM 51.8 °F - N/A% - 5.0 mi North 3.5 mph - N/A Rain Light Rain
5:00 PM 51 °F 50 °F 93% 29.80 in 4 mi North 4.6 mph - - Rain Rain
5:00 PM 51.8 °F 50.0 °F 94% 29.80 in 4.0 mi NNE 4.6 mph - N/A Rain Rain
5:52 PM 51.8 °F - N/A% - 2.0 mi NNW 2.3 mph - N/A Rain Rain
6:00 PM 51.8 °F 50.0 °F 94% 29.78 in 2.0 mi North 3.5 mph - N/A Rain Rain
7:00 PM 51.8 °F 50.0 °F 94% 29.76 in 2.0 mi NE 8.1 mph - N/A Rain Rain
8:00 PM 51.8 °F 50.0 °F 94% 29.76 in 2.0 mi NE 11.5 mph - N/A Rain Rain
8:13 PM 51.8 °F - N/A% - 2.0 mi NE 13.8 mph - N/A Rain Heavy Rain
8:34 PM 51.8 °F - N/A% - 2.0 mi NE 8.1 mph - N/A Rain Rain
9:00 PM 51.8 °F 50.0 °F 94% 29.74 in 5.0 mi NE 10.4 mph 17.3 mph N/A Rain Light Rain
10:00 PM 51.8 °F 50.0 °F 94% 29.75 in 5.0 mi West 6.9 mph - N/A Rain Light Rain
11:00 PM 52 °F 50 °F 91% 29.74 in 6 mi WNW 4.6 mph - - Rain Light Rain
11:00 PM 51.8 °F 50.0 °F 94% 29.74 in 6.0 mi WNW 4.6 mph - N/A Rain Light Rain
11:25 PM 51.8 °F - N/A% - 5.0 mi West 5.8 mph - N/A Rain Light Rain